(°C)
11°
11°
10°
10°
10°
10°
10°
(°C)
GGB
GGB
B
B
B
BGB
B
(km/saat)
7-16
10-19
16-27
13-24
12-23
12-22
15-25
(mm)
0
0
1.3
1.2
0
0
0
(%)
39
54
71
77
50
46
34

Güneşin açısı

/ -32.1°
sun-icon
UV 2
06:34
18:17
Artan Yarımay (70°)
13:40
20:38

52.17°K 20.97°D (EPWA) için METAR

Zaman Koşullar Sıcaklık/
Çiy noktası
Rüzgar Görünürlük Hava Bulutlar Basınç Değiştir Ham
VFR 11°C / 9°C 120º 4kt >10km - Clouds and Visibility OK 1007 Becoming: Wind 270º 12kt. EPWA 011930Z 12004KT CAVOK 11/09 Q1007 BECMG 27012KT
VFR 10°C / 9°C 130º 3kt >10km - Clouds and Visibility OK 1007 No Significant change EPWA 011900Z 13003KT CAVOK 10/09 Q1007 NOSIG
VFR 11°C / 9°C 140º 4kt >10km - Clouds and Visibility OK 1007 No Significant change EPWA 011830Z 14004KT CAVOK 11/09 Q1007 NOSIG
VFR 11°C / 9°C 150º 4kt >10km - Clouds and Visibility OK 1007 No Significant change EPWA 011800Z 15004KT CAVOK 11/09 Q1007 NOSIG
VFR 12°C / 9°C 110º 5kt >10km - Clouds and Visibility OK 1007 No Significant change EPWA 011730Z 11005KT CAVOK 12/09 Q1007 NOSIG
VFR 12°C / 9°C 140º 7kt >10km - Clouds and Visibility OK 1008 No Significant change EPWA 011700Z 14007KT CAVOK 12/09 Q1008 NOSIG
VFR 12°C / 9°C 130º 6kt >10km - Clouds and Visibility OK 1008 No Significant change EPWA 011630Z 13006KT CAVOK 12/09 Q1008 NOSIG
VFR 12°C / 9°C 140º 7kt >10km - Clouds and Visibility OK 1008 No Significant change EPWA 011600Z 14007KT CAVOK 12/09 Q1008 NOSIG
VFR 13°C / 9°C 140º 8kt >10km - Clouds and Visibility OK 1009 No Significant change EPWA 011530Z 14008KT CAVOK 13/09 Q1009 NOSIG
VFR 13°C / 9°C 140º 9kt >10km - Few Clouds 2300ft 1009 No Significant change EPWA 011500Z 14009KT 9999 FEW023 13/09 Q1009 NOSIG
VFR 13°C / 9°C 130º 8kt >10km - Few Clouds 2300ft 1009 No Significant change EPWA 011430Z 13008KT 9999 FEW023 13/09 Q1009 NOSIG
VFR 13°C / 9°C 150º 9kt >10km - Scattered Clouds 2300ft 1010 No Significant change EPWA 011400Z 15009KT 9999 SCT023 13/09 Q1010 NOSIG
MVFR 13°C / 9°C 140º 8kt >10km - Broken Clouds 2200ft 1010 No Significant change EPWA 011330Z 14008KT 9999 BKN022 13/09 Q1010 NOSIG
VFR 14°C / 9°C 130º variable 100º to 160º 6kt >10km - Scattered Clouds 2000ft 1010 No Significant change EPWA 011300Z 13006KT 100V160 9999 SCT020 14/09 Q1010 NOSIG
MVFR 13°C / 9°C 140º variable 100º to 180º 7kt >10km - Broken Clouds 2000ft 1011 No Significant change EPWA 011230Z 14007KT 100V180 9999 BKN020 13/09 Q1011 NOSIG
MVFR 13°C / 9°C 150º variable 110º to 180º 5kt >10km - Broken Clouds 1800ft 1011 No Significant change EPWA 011200Z 15005KT 110V180 9999 BKN018 13/09 Q1011 NOSIG
MVFR 13°C / 10°C 150º 7kt >10km - Scattered Clouds 1300ft
Broken Clouds 2300ft
1012 No Significant change EPWA 011130Z 15007KT 9999 SCT013 BKN023 13/10 Q1012 NOSIG
MVFR 12°C / 9°C 160º 6kt >10km - Scattered Clouds 1300ft
Broken Clouds 1800ft
1012 No Significant change EPWA 011100Z 16006KT 9999 SCT013 BKN018 12/09 Q1012 NOSIG
MVFR 12°C / 9°C 180º 5kt >10km - Broken Clouds 1400ft 1013 Becoming: Broken Clouds 1800ft. EPWA 011030Z 18005KT 9999 BKN014 12/09 Q1013 BECMG BKN018
MVFR 12°C / 9°C 190º variable 150º to 210º 4kt >10km - Broken Clouds 1400ft 1013 Becoming: Broken Clouds 1800ft. EPWA 011000Z 19004KT 150V210 9999 BKN014 12/09 Q1013 BECMG BKN018
MVFR 12°C / 9°C 170º 6kt >10km - Scattered Clouds 1200ft
Broken Clouds 1800ft
1013 No Significant change EPWA 010930Z 17006KT 9999 SCT012 BKN018 12/09 Q1013 NOSIG
MVFR 12°C / 9°C 150º 6kt >10km - Scattered Clouds 1200ft
Broken Clouds 1800ft
1013 No Significant change EPWA 010900Z 15006KT 9999 SCT012 BKN018 12/09 Q1013 NOSIG
MVFR 12°C / 9°C 140º variable 110º to 170º 5kt >10km - Few Clouds 1200ft
Broken Clouds 2000ft
1013 No Significant change EPWA 010830Z 14005KT 110V170 9999 FEW012 BKN020 12/09 Q1013 NOSIG
MVFR 12°C / 9°C 130º 5kt >10km - Few Clouds 800ft
Broken Clouds 3000ft
1014 Temporary: Broken Clouds 800ft. EPWA 010800Z 13005KT 9999 FEW008 BKN030 12/09 Q1014 TEMPO BKN008

VFR

11°C / 9°C

[Daha fazla]
Rüzgar 120º 4kt
Görünürlük >10km
Hava -
Bulutlar Clouds and Visibility OK
Basınç 1007
Değiştir Becoming: Wind 270º 12kt.
Ham EPWA 011930Z 12004KT CAVOK 11/09 Q1007 BECMG 27012KT

VFR

10°C / 9°C

[Daha fazla]
Rüzgar 130º 3kt
Görünürlük >10km
Hava -
Bulutlar Clouds and Visibility OK
Basınç 1007
Değiştir No Significant change
Ham EPWA 011900Z 13003KT CAVOK 10/09 Q1007 NOSIG

VFR

11°C / 9°C

[Daha fazla]
Rüzgar 140º 4kt
Görünürlük >10km
Hava -
Bulutlar Clouds and Visibility OK
Basınç 1007
Değiştir No Significant change
Ham EPWA 011830Z 14004KT CAVOK 11/09 Q1007 NOSIG

VFR

11°C / 9°C

[Daha fazla]
Rüzgar 150º 4kt
Görünürlük >10km
Hava -
Bulutlar Clouds and Visibility OK
Basınç 1007
Değiştir No Significant change
Ham EPWA 011800Z 15004KT CAVOK 11/09 Q1007 NOSIG

VFR

12°C / 9°C

[Daha fazla]
Rüzgar 110º 5kt
Görünürlük >10km
Hava -
Bulutlar Clouds and Visibility OK
Basınç 1007
Değiştir No Significant change
Ham EPWA 011730Z 11005KT CAVOK 12/09 Q1007 NOSIG

VFR

12°C / 9°C

[Daha fazla]
Rüzgar 140º 7kt
Görünürlük >10km
Hava -
Bulutlar Clouds and Visibility OK
Basınç 1008
Değiştir No Significant change
Ham EPWA 011700Z 14007KT CAVOK 12/09 Q1008 NOSIG

VFR

12°C / 9°C

[Daha fazla]
Rüzgar 130º 6kt
Görünürlük >10km
Hava -
Bulutlar Clouds and Visibility OK
Basınç 1008
Değiştir No Significant change
Ham EPWA 011630Z 13006KT CAVOK 12/09 Q1008 NOSIG

VFR

12°C / 9°C

[Daha fazla]
Rüzgar 140º 7kt
Görünürlük >10km
Hava -
Bulutlar Clouds and Visibility OK
Basınç 1008
Değiştir No Significant change
Ham EPWA 011600Z 14007KT CAVOK 12/09 Q1008 NOSIG

VFR

13°C / 9°C

[Daha fazla]
Rüzgar 140º 8kt
Görünürlük >10km
Hava -
Bulutlar Clouds and Visibility OK
Basınç 1009
Değiştir No Significant change
Ham EPWA 011530Z 14008KT CAVOK 13/09 Q1009 NOSIG

VFR

13°C / 9°C

[Daha fazla]
Rüzgar 140º 9kt
Görünürlük >10km
Hava -
Bulutlar Few Clouds 2300ft
Basınç 1009
Değiştir No Significant change
Ham EPWA 011500Z 14009KT 9999 FEW023 13/09 Q1009 NOSIG

VFR

13°C / 9°C

[Daha fazla]
Rüzgar 130º 8kt
Görünürlük >10km
Hava -
Bulutlar Few Clouds 2300ft
Basınç 1009
Değiştir No Significant change
Ham EPWA 011430Z 13008KT 9999 FEW023 13/09 Q1009 NOSIG

VFR

13°C / 9°C

[Daha fazla]
Rüzgar 150º 9kt
Görünürlük >10km
Hava -
Bulutlar Scattered Clouds 2300ft
Basınç 1010
Değiştir No Significant change
Ham EPWA 011400Z 15009KT 9999 SCT023 13/09 Q1010 NOSIG

MVFR

13°C / 9°C

[Daha fazla]
Rüzgar 140º 8kt
Görünürlük >10km
Hava -
Bulutlar Broken Clouds 2200ft
Basınç 1010
Değiştir No Significant change
Ham EPWA 011330Z 14008KT 9999 BKN022 13/09 Q1010 NOSIG

VFR

14°C / 9°C

[Daha fazla]
Rüzgar 130º variable 100º to 160º 6kt
Görünürlük >10km
Hava -
Bulutlar Scattered Clouds 2000ft
Basınç 1010
Değiştir No Significant change
Ham EPWA 011300Z 13006KT 100V160 9999 SCT020 14/09 Q1010 NOSIG

MVFR

13°C / 9°C

[Daha fazla]
Rüzgar 140º variable 100º to 180º 7kt
Görünürlük >10km
Hava -
Bulutlar Broken Clouds 2000ft
Basınç 1011
Değiştir No Significant change
Ham EPWA 011230Z 14007KT 100V180 9999 BKN020 13/09 Q1011 NOSIG

MVFR

13°C / 9°C

[Daha fazla]
Rüzgar 150º variable 110º to 180º 5kt
Görünürlük >10km
Hava -
Bulutlar Broken Clouds 1800ft
Basınç 1011
Değiştir No Significant change
Ham EPWA 011200Z 15005KT 110V180 9999 BKN018 13/09 Q1011 NOSIG

MVFR

13°C / 10°C

[Daha fazla]
Rüzgar 150º 7kt
Görünürlük >10km
Hava -
Bulutlar Scattered Clouds 1300ft
Broken Clouds 2300ft
Basınç 1012
Değiştir No Significant change
Ham EPWA 011130Z 15007KT 9999 SCT013 BKN023 13/10 Q1012 NOSIG

MVFR

12°C / 9°C

[Daha fazla]
Rüzgar 160º 6kt
Görünürlük >10km
Hava -
Bulutlar Scattered Clouds 1300ft
Broken Clouds 1800ft
Basınç 1012
Değiştir No Significant change
Ham EPWA 011100Z 16006KT 9999 SCT013 BKN018 12/09 Q1012 NOSIG

MVFR

12°C / 9°C

[Daha fazla]
Rüzgar 180º 5kt
Görünürlük >10km
Hava -
Bulutlar Broken Clouds 1400ft
Basınç 1013
Değiştir Becoming: Broken Clouds 1800ft.
Ham EPWA 011030Z 18005KT 9999 BKN014 12/09 Q1013 BECMG BKN018

MVFR

12°C / 9°C

[Daha fazla]
Rüzgar 190º variable 150º to 210º 4kt
Görünürlük >10km
Hava -
Bulutlar Broken Clouds 1400ft
Basınç 1013
Değiştir Becoming: Broken Clouds 1800ft.
Ham EPWA 011000Z 19004KT 150V210 9999 BKN014 12/09 Q1013 BECMG BKN018

MVFR

12°C / 9°C

[Daha fazla]
Rüzgar 170º 6kt
Görünürlük >10km
Hava -
Bulutlar Scattered Clouds 1200ft
Broken Clouds 1800ft
Basınç 1013
Değiştir No Significant change
Ham EPWA 010930Z 17006KT 9999 SCT012 BKN018 12/09 Q1013 NOSIG

MVFR

12°C / 9°C

[Daha fazla]
Rüzgar 150º 6kt
Görünürlük >10km
Hava -
Bulutlar Scattered Clouds 1200ft
Broken Clouds 1800ft
Basınç 1013
Değiştir No Significant change
Ham EPWA 010900Z 15006KT 9999 SCT012 BKN018 12/09 Q1013 NOSIG

MVFR

12°C / 9°C

[Daha fazla]
Rüzgar 140º variable 110º to 170º 5kt
Görünürlük >10km
Hava -
Bulutlar Few Clouds 1200ft
Broken Clouds 2000ft
Basınç 1013
Değiştir No Significant change
Ham EPWA 010830Z 14005KT 110V170 9999 FEW012 BKN020 12/09 Q1013 NOSIG

MVFR

12°C / 9°C

[Daha fazla]
Rüzgar 130º 5kt
Görünürlük >10km
Hava -
Bulutlar Few Clouds 800ft
Broken Clouds 3000ft
Basınç 1014
Değiştir Temporary: Broken Clouds 800ft.
Ham EPWA 010800Z 13005KT 9999 FEW008 BKN030 12/09 Q1014 TEMPO BKN008

52.17°K 20.97°D (EPWA) için TAF

From till


From till Wind 160º 7kt. Visibility 10km or more. Broken Clouds 3000ft.
Becoming from till Wind 270º 10kt. Visibility 10km or more. Broken Clouds 3000ft.
Temporarly from till Showers Rain . Broken Clouds 500ft. Broken Clouds 1100ft.
Temporarly from till Visibility 4000m. Light Rain Mist . Broken Clouds 400ft. Broken Clouds 800ft.
Becoming from till Wind 270º 10kt. Visibility 10km or more. Broken Clouds 1200ft.
Temporarly from till Wind 270º 15kt. Gust 25kt. Showers Rain . Broken Clouds 800ft.
Becoming from till Wind 270º 10kt. Visibility 10km or more. Broken Clouds 2000ft.
Temporarly from till Wind 270º 15kt. Gust 28kt. Showers Rain . Broken Clouds 1400ft.

Ham: TAF EPWA 011730Z 0118/0218 16007KT 9999 BKN030 BECMG 0119/0121 27010KT TEMPO 0119/0121 SHRA BKN005 BKN011CB BECMG 0121/0124 BKN012 TEMPO 0121/0206 4000 -RA BR BKN004 BKN008 TEMPO 0206/0209 27015G25KT SHRA BKN008CB BECMG 0208/0211 BKN020 TEMPO 0209/0218 27015G28KT SHRA BKN014CB

52.17°K 20.97°D için radar ve yağış nowcast

Çise
Hafif
Orta
Ağır
Çok ağır
Dolu

Konum işaretleyicisi 52.17°K 20.97°D üzerine yerleştirilir. Bu animasyon son saat içerisindeki yağış radarını ve 1h tahminini gösterir. Hafif yağmur veya kar yağışı radar için görünmez olabilir. Yağış şiddeti açık mavi ile koyu mor arasındaki renklerle kodlanmıştır.

52.17°K 20.97°D için şu anki uydu ve yağmur görüntüleri

Konum işaretleyici 52.17°K 20.97°D üzerine yerleştirilir. [Daha fazla]

Gerçek zamanlı uydu görüntüsü gündüz süresince görülür ışığı gece süresince kızılötesi ışınım ile birleştirir. Gece kızılötesi ışınım sıcaklık farklarını algılayabildiğinden dolayı görüntü karanlık değildir. Ancak düşük bulutları ve sisi yer sıcaklığından ayırmak zordur ve bu nedenle gece boyunca neredeyse görünmez olabilirler. Avrupa için Meteosat uydu görüntüleri gerçek zamanlı olarak her 5 dakikada bir güncellenir. GOES-16/GOES-17 (Kuzey ve Güney Amerika) ve Himawari (Asya) görüntüleri her 10 dakikada bir güncellenir.

Yağış radar ve uydulardan tahmin edilir. Uydulardan elde edilen yağış tahminleri geceleri gündüze göre daha az doğrudur. Turuncu çarpılar şimşeklerin saptandığı yerleri gösterir (Avrupa üzeri).

Copyright 2022 EUMETSAT / meteoblue. nowcast tarafından sağlanan şimşek verileri.

En başa git